Weather in Slobodki

Russia / Ivanovo Oblast     56°55′30″N   42°20′10″E
temp.,
°C
wind,
m/s
gust,
m/s
humid.,
%
clouds,
%
prec.,
mm/h
press.,
hPa
HPBL,
m
31 july, sat
sat3100:00+17s359523 0.0 100399
03:00+16sw359819 0.3 1002111
06:00+17wsw389574 0.2 1001241
09:00+22w576732 0.2 1002697
12:00+26wsw7940100 0.1 10022652
15:00+28wsw8102837 0.1 10023184
18:00+26w7113754 0.0 10032327
21:00+19wsw475564 0.0 1005121
1 august, sun
sun100:00+18wsw410638 0.0 1006224
03:00+15wsw39772 0.0 1008181
06:00+17wsw397299 0.0 1009261
09:00+23wsw5853100 0.0 10101060
12:00+26wsw6840100 0.0 10101822
15:00+27w5736100 0.0 10102235
18:00+25w244391 0.0 1009562
21:00+18sw4983100 0.5 1010255
2 august, mon
mon200:00+18ssw399251 0.4 1010223
03:00+17sw3696100 0.5 1010146
06:00+18wsw2593100 0.0 1010147
09:00+22wsw2475100 0.1 1010398
12:00+26ssw235571 0.0 1010939
15:00+29ssw274630 0.9 10071484
18:00+22wsw61473100 0.6 1007509
21:00+20sse498143 1.4 1005139
3 august, tue
tue300:00+19sse51588100 1.2 1004354
03:00+18ssw51389100 1.3 1003350
06:00+19ssw5129254 0.4 1003508
09:00+19ssw51094100 0.4 1004560
12:00+23wsw786797 0.1 10051107
15:00+25wsw674798 0.1 10051842
18:00+23w5553100 0.0 10061126
21:00+17wnw347594 0.0 100853
4 august, wed
wed400:00+15w22845 0.0 100928
03:00+14w229140 0.0 101021
06:00+16w249294 0.4 1010120
09:00+20w346556 0.6 1012547
12:00+24wnw444228 0.0 10122041
15:00+23nw3543100 0.0 10131201
18:00+22nw3649100 0.0 1013429
21:00+19nw225880 0.0 101528